Overview Statistics Trail Chart Weather Telemetry Raw packets
 

This is the latest recevied weather packets stored in our database for station/object HS3UAA-1. If no packets are shown the sender has not sent any weather packets the latest 10 day(s).

<< 63 64 65 66 67 68 69 >>
Time Temp. Humidity Pressure Rain* Wind** Luminosity Snow
1788166104 28.89° C 47% 994 hPa - - 0 W/m² -
1788165782 28.89° C 44% 994 hPa - - 0 W/m² -
1788165460 28.89° C 47% 994 hPa - - 0 W/m² -
1788165138 28.89° C 45% 994 hPa - - 0 W/m² -
1788164816 28.89° C 45% 994 hPa - - 0 W/m² -
1788164494 28.89° C 47% 994 hPa - - 0 W/m² -
1788164172 28.89° C 45% 994 hPa - - 0 W/m² -
1788163850 28.89° C 45% 994 hPa - - 0 W/m² -
1788163528 28.89° C 46% 994 hPa - - 0 W/m² -
1788163205 28.89° C 44% 994 hPa - - 0 W/m² -
1788162883 29.44° C 47% 994 hPa - - 0 W/m² -
1788162561 28.89° C 44% 994 hPa - - 0 W/m² -
1788162139 28.89° C 46% 994 hPa - - 0 W/m² -
1788161811 28.89° C 47% 994 hPa - - 0 W/m² -
1788161489 28.33° C 44% 994 hPa - - 0 W/m² -
1788161167 29.44° C 44% 994 hPa - - 0 W/m² -
1788160845 28.33° C 44% 994 hPa - - 0 W/m² -
1788160523 28.89° C 44% 994 hPa - - 0 W/m² -
1788160201 28.89° C 48% 994 hPa - - 0 W/m² -
1788159436 28.89° C 43% 994 hPa - - 0 W/m² -
1788159114 28.89° C 43% 994 hPa - - 0 W/m² -
1788158792 29.44° C 46% 994 hPa - - 0 W/m² -
1788158470 28.89° C 43% 994 hPa - - 0 W/m² -
1788158040 29.44° C 43% 994 hPa - - 0 W/m² -
1788157718 28.33° C 45% 994 hPa - - 0 W/m² -

* Rain since midnight (hover to see other rain measurements)
** Current wind speed in m/s (hover to see current wind gust speed)